Дата Пункты Температура Давл., мм. Влажн., % Ветер Погодные явления
Воздуха Воды Направл. Скорость
01.11.18 05:00 Одесса 12.0 15.0 770 86 С 4 05 ГОДИН
01.11.18 02:00 Одесса 13.0 15.0 770 87 С 4 02 ГОДИНИ
31.10.18 11:00 Одесса 13.0 15.0 769 89 С 7 23 ГОДИНИ
31.10.18 08:00 Одесса 14.0 15.0 768 88 С 7 20 ГОДИН
31.10.18 05:00 Одесса 14.0 15.0 767 92 С 2 17 ГОДИН
31.10.18 02:00 Одесса 14.0 15.0 767 92 С 4 14 ГОДИН
31.10.18 11:00 Одесса 13.0 15.0 767 97 С 5 11 ГОДИН
31.10.18 08:00 Одесса 15.0 15.0 765 89 Пд-С 3 08 ГОДИН
31.10.18 05:00 Одесса 15.0 15.0 764 94 Пд 4 05 ГОДИН
31.10.18 02:00 Одесса 15.0 15.0 763 95 Пд 4 02 ГОДИНИ
30.10.18 11:00 Одесса 15.0 15.0 763 95 Пд 3 23 ГОДИНИ
30.10.18 08:00 Одесса 15.0 15.0 763 93 Пд 5 20 ГОДИН
30.10.18 05:00 Одесса 15.0 15.0 762 89 Пд 3 17 ГОДИН
30.10.18 02:00 Одесса 16.0 15.0 762 87 Пд 4 14 ГОДИН
30.10.18 11:00 Одесса 16.0 15.0 762 90 Пд 3 11 ГОДИН
30.10.18 08:00 Одесса 16.0 15.0 762 93 Пд 3 08 ГОДИН
30.10.18 05:00 Одесса 15.0 15.0 762 92 Пд 2 05 ГОДИН
30.10.18 02:00 Одесса 15.0 15.0 761 94 Пд-З 3 02 ГОДИНИ
29.10.18 11:00 Одесса 15.0 15.0 761 94 Пд-З 3 23 ГОДИНИ
29.10.18 08:00 Одесса 15.0 15.0 761 92 Пд-З 3 20 ГОДИН
Количество строк
1 2 3 4 5 6 7 8 9 10
Page 7 of 426